Regional Weather Roundup
Issued by NWS

Home | Current Version | Previous Version | Text Only | Print | Product List | Glossary Off
Versions: 1 2 3 4 5 6 7 8 9 10 11 12 13 14 15 16 17 18 19 20 21 22 23 24 25 26 27 28 29 30 31 32 33 34 35 36 37 38 39 40 41 42 43 44 45 46 47 48 49 50

000
ASUS45 KPSR 160700
RWRAZ

PRELIMINARY ARIZONA REGIONAL HOURLY WEATHER ROUNDUP
NATIONAL WEATHER SERVICE PHOENIX AZ
1200 AM MST WED APR 16 2014

NOTE: FAIR INDICATES FEW OR NO CLOUDS BELOW 12,000 FEET WITH NO
SIGNIFICANT WEATHER AND/OR OBSTRUCTIONS TO VISIBILITY.

AZZ001>003-036-160800-
NORTHWEST ARIZONA

CITY           SKY/WX    TMP DP  RH WIND       PRES   REMARKS
KINGMAN        CLEAR     49   1  14 SE5       29.86F
$$

AZZ004>008-015-016-018-160800-
NORTH CENTRAL ARIZONA

CITY           SKY/WX    TMP DP  RH WIND       PRES   REMARKS
GRAND CANYON   PTCLDY    27  -3  27 NE5       29.99S WCI  22
WILLIAMS       CLEAR     32   0  25 SE10      30.09S WCI  24
PRESCOTT       CLEAR     47   9  21 SW9       29.95S
FLAGSTAFF      CLEAR     30   7  37 CALM      30.02S
PAYSON         PTCLDY    50  14  23 CALM      29.97S
PAGE           CLEAR     60   3  10 NW5       29.84R
$$

AZZ009>014-017-160800-
NORTHEAST ARIZONA

CITY           SKY/WX    TMP DP  RH WIND       PRES   REMARKS
WINSLOW        NOT AVBL
SAINT JOHNS    PTCLDY    51   7  16 SW13      29.95S
WINDOW ROCK    CLEAR     33  -1  23 E3        29.98S
SHOW LOW       CLEAR     46   7  19 S9        30.02F
$$

AZZ023-160800-
GREATER PHOENIX AREA

CITY           SKY/WX    TMP DP  RH WIND       PRES   REMARKS
PHOENIX        CLEAR     71  25  17 E7        29.74S
LUKE AFB       NOT AVBL
DEER VALLEY    CLEAR     68   8   9 NE8       29.76S
SCOTTSDALE     CLEAR     66  24  20 CALM      29.78S
MESA-GATEWAY   PTCLDY    61  25  25 SE6       29.78F
$$

AZZ027-028-160800-
SOUTHWEST MARICOPA COUNTY AND PINAL COUNTY

CITY           SKY/WX    TMP DP  RH WIND       PRES   REMARKS
CASA GRANDE    CLEAR     61  12  15 CALM      29.78S
$$

AZZ503-504-507>509-160800-
SOUTHEAST ARIZONA

CITY           SKY/WX    TMP DP  RH WIND       PRES   REMARKS
TUCSON         CLEAR     64  11  12 S3        29.86R
DAVIS-MONTHAN  CLEAR     62  12  14 S6        29.84R
NOGALES        CLEAR     55  11  17 E5        29.91R
SIERRA VISTA   PTCLDY    61   7  11 SW10      29.94F
SAFFORD        CLEAR     56  10  16 S5        29.85R
$$

AZZ020-021-025-026-031-160800-
SOUTHWEST ARIZONA

CITY           SKY/WX    TMP DP  RH WIND       PRES   REMARKS
YUMA           NOT AVBL
$$

CAZ031-033-041-043-047-048-061-160800-
SOUTHERN CALIFORNIA

CITY           SKY/WX    TMP DP  RH WIND       PRES   REMARKS
DOWNTOWN L.A.  CLOUDY    58  53  84 CALM      29.88R
L.A. AIRPORT   CLOUDY    59  55  87 CALM      29.88S
SAN DIEGO      CLOUDY    60  52  74 SW3       29.91F
BURBANK        CLEAR     57  52  83 SE10      29.86S
ONTARIO        PTCLDY    60  48  64 NW6       29.87S
RIVERSIDE      CLEAR     61  47  59 W5        29.88R
PALM SPRINGS   CLEAR     80  28  15 NW6       29.75S
EL CENTRO NAS  CLEAR     73  34  23 SW12      29.73S
IMPERIAL       CLEAR     74  35  24 W16       29.72F
BLYTHE         CLEAR     70  23  17 S6        29.73R
$$

NVZ020-UTZ003-160800-
SOUTHERN NEVADA-UTAH

CITY           SKY/WX    TMP DP  RH WIND       PRES   REMARKS
LAS VEGAS      NOT AVBL
SALT LAKE CITY CLOUDY    50  20  30 N5        29.94S
$$

NMZ009-TXZ055-160800-
NEW MEXICO-WEST TEXAS

CITY           SKY/WX    TMP DP  RH WIND       PRES   REMARKS
ALBUQUERQUE    MOCLDY    53   8  16 S15       29.92S
EL PASO        PTCLDY    58   4  11 CALM      29.91F
$$


........................KEY........................
SKY/WX - SKY CONDITION/WEATHER
TMP    - TEMPERATURE IN FAHRENHEIT
DP     - DEW POINT IN FAHRENHEIT
RH     - RELATIVE HUMIDITY IN PERCENT
WIND   - DIRECTION AND SPEED IN MILES PER HOUR (MPH)
VRB    - VARIABLE WIND DIRECTION
PRES   - MEAN SEA LEVEL PRESSURE IN INCHES OF MERCURY
         F - FALLING PRESSURE   R - RISING PRESSURE
         S - STEADY PRESSURE
VSB    - VISIBILITY IN MILES
HX     - HEAT INDEX IN FAHRENHEIT
WCI    - WIND CHILL INDEX IN FAHRENHEIT
TC     - TEMPERATURE IN CELSIUS WHICH IS ALSO KNOWN AS
         TEMPERATURE IN CENTIGRADE
AFB    - AIR FORCE BASE
         LUKE AFB IS LUKE AIR FORCE BASE
         DAVIS-MONTHAN IS DAVIS-MONTHAN AIR FORCE BASE
NAS    - NAVAL AIR STATION
         EL CENTRO NAS IS EL CENTRO NAVAL AIR STATION
N/A    - NOT AVAILABLE



USA.gov is the U.S. government's official web portal to all federal, state and local government web resources and services.